1513288800.51,29013,5.5,71794.0,-10.53,-30.17,-29.67,0,*61
1513288801.77,29014,5.56,71784.8,-10.55,-30.23,-29.73,0,*62
1513288803.04,29015,5.5,71774.3,-10.55,-30.17,-29.83,0,*6B
1513288804.28,29016,5.5,71780.0,-10.55,-30.33,-29.83,0,*6E
1513288805.49,29017,5.5,71782.0,-10.53,-30.27,-29.79,0,*69
1513288806.74,29018,5.56,71796.0,-10.53,-30.17,-29.67,0,*6A
1513288808.02,29019,5.5,71792.8,-10.55,-30.05,-29.73,0,*6B
1513288809.31,29020,5.56,71792.8,-10.55,-30.17,-29.73,0,*62
1513288810.58,29021,5.56,71796.0,-10.55,-30.05,-29.67,0,*65
1513288811.84,29022,5.5,71796.0,-10.55,-30.05,-29.67,0,*66
1513288813.11,29023,5.56,71804.8,-10.55,-30.05,-29.67,0,*67
1513288814.37,29024,5.56,71812.3,-10.55,-30.05,-29.57,0,*63
1513288815.63,29025,5.56,71806.8,-10.55,-30.05,-29.57,0,*62
1513288816.85,29026,5.5,71796.0,-10.53,-29.67,-29.23,0,*68
1513288818.14,29027,5.56,71800.3,-10.55,-30.01,-29.51,0,*62
1513288819.4,29028,5.56,71806.8,-10.55,-30.01,-29.57,0,*6B
1513288820.67,29029,5.56,71818.5,-10.55,-30.01,-29.57,0,*6A
1513288821.95,29030,5.56,71790.8,-10.55,-29.73,-29.29,0,*66
1513288823.22,29031,5.56,71798.3,-10.55,-29.67,-29.35,0,*6F
1513288824.46,29032,5.56,71792.5,-10.53,-29.29,-29.07,0,*61
1513288825.73,29033,5.56,71816.0,-10.55,-29.83,-29.17,0,*67
1513288827.02,29034,5.56,71826.8,-10.55,-29.73,-29.35,0,*6F
1513288828.3,29035,5.5,71808.0,-10.55,-29.73,-29.29,0,*63
1513288829.6,29036,5.5,71812.0,-10.55,-29.39,-29.01,0,*64
1513288830.86,29037,5.56,71824.8,-10.55,-29.67,-29.29,0,*64
1513288832.15,29038,5.56,71826.5,-10.55,-29.73,-29.35,0,*63
1513288833.41,29039,5.5,71828.3,-10.55,-29.67,-29.29,0,*6A
1513288834.71,29040,5.56,71830.8,-10.55,-29.39,-29.01,0,*65
1513288835.97,29041,5.56,71830.0,-10.55,-29.29,-28.97,0,*6B
1513288837.24,29042,5.5,71828.0,-10.55,-29.13,-28.85,0,*62
1513288838.51,29043,5.56,71820.3,-10.55,-28.85,-28.47,0,*63
1513288839.78,29044,5.5,71816.3,-10.53,-28.91,-28.47,0,*67
1513288841.05,29045,5.56,71822.0,-10.53,-28.91,-28.59,0,*69
1513288842.3,29046,5.56,71814.0,-10.53,-28.97,-28.59,0,*6C
1513288843.54,29047,5.56,71784.0,-10.53,-28.97,-28.63,0,*64
1513288844.84,29048,5.56,71800.0,-10.51,-28.91,-28.63,0,*6F
1513288846.1,29049,5.5,71800.0,-10.51,-28.97,-28.75,0,*6F
1513288847.4,29050,5.5,71806.0,-10.51,-28.91,-28.59,0,*6F
1513288848.67,29051,5.5,71806.8,-10.51,-28.97,-28.63,0,*61
1513288849.91,29052,5.56,71814.8,-10.53,-28.97,-28.59,0,*69
1513288851.17,29053,5.56,71810.5,-10.53,-29.13,-28.79,0,*67
1513288852.44,29054,5.56,71826.5,-10.51,-29.07,-28.79,0,*67
1513288853.67,29055,5.5,71826.0,-10.53,-28.97,-28.79,0,*6C
1513288854.95,29056,5.56,71828.8,-10.53,-28.91,-28.59,0,*6B
1513288856.19,29057,5.56,71832.5,-10.53,-28.97,-28.63,0,*65
1513288857.46,29058,5.5,71828.5,-10.53,-28.91,-28.75,0,*6B
1513288858.73,29059,5.5,71834.8,-10.53,-28.91,-28.75,0,*6A
1513288859.99,29060,5.5,71842.5,-10.53,-28.91,-28.75,0,*60
1513288861.26,29061,5.5,71846.5,-10.55,-28.69,-28.47,0,*61
1513288862.53,29062,5.56,71844.3,-10.53,-28.43,-28.25,0,*68
1513288863.77,29063,5.56,71836.0,-10.53,-28.31,-28.05,0,*6E
1513288865.04,29064,5.5,71828.8,-10.51,-28.15,-28.09,0,*61
1513288866.3,29065,5.5,71826.5,-10.51,-28.47,-28.15,0,*6A
1513288867.57,29066,5.5,71814.0,-10.49,-28.43,-28.25,0,*67
1513288868.83,29067,5.5,71802.8,-10.51,-28.47,-28.31,0,*6E
1513288870.11,29068,5.56,71814.5,-10.51,-28.59,-28.31,0,*6E
1513288871.4,29069,5.5,71810.8,-10.51,-28.25,-28.05,0,*63
1513288872.64,29070,5.5,71774.0,-10.51,-28.15,-27.93,0,*68
1513288873.91,29071,5.5,71766.5,-10.51,-28.15,-28.05,0,*69
1513288875.15,29072,5.5,71784.8,-10.51,-27.89,-27.89,0,*6B
1513288876.45,29073,5.56,71738.3,-10.51,-28.05,-28.05,0,*6A
1513288877.71,29074,5.5,71738.5,-10.49,-28.09,-27.99,0,*62
1513288878.96,29075,5.5,71744.3,-10.49,-28.37,-28.21,0,*62
1513288880.23,29076,5.56,71792.3,-10.49,-28.43,-28.21,0,*62
1513288881.49,29077,5.56,71824.5,-10.49,-28.43,-28.21,0,*63
1513288882.74,29078,5.56,71816.5,-10.49,-28.37,-28.21,0,*6F
1513288883.98,29079,5.5,71830.0,-10.49,-28.31,-28.25,0,*6C
1513288885.25,29080,5.5,71842.8,-10.49,-28.43,-28.25,0,*6F
1513288886.54,29081,5.5,71840.0,-10.51,-28.47,-28.25,0,*63
1513288887.8,29082,5.5,71838.5,-10.51,-28.47,-28.31,0,*65
1513288889.07,29083,5.5,71830.3,-10.51,-28.43,-28.31,0,*60
1513288890.34,29084,5.5,71842.0,-10.51,-28.47,-28.31,0,*63
1513288891.58,29085,5.5,71836.3,-10.49,-28.37,-28.25,0,*69
1513288892.88,29086,5.5,71820.8,-10.51,-28.25,-28.21,0,*64
1513288894.18,29087,5.5,71790.5,-10.51,-28.05,-28.05,0,*61
1513288895.44,29088,5.5,71810.5,-10.49,-28.09,-28.09,0,*67
1513288896.73,29089,5.5,71818.5,-10.51,-28.09,-28.09,0,*6F
1513288898.03,29090,5.5,71824.0,-10.51,-28.05,-28.09,0,*6B
1513288899.28,29091,5.5,71812.3,-10.51,-27.93,-28.15,0,*67
1513288900.54,29092,5.5,71826.5,-10.49,-27.99,-28.05,0,*66
1513288901.76,29093,5.56,71818.3,-10.49,-27.89,-27.89,0,*6D
1513288903.0,29094,5.5,71814.5,-10.51,-27.93,-27.89,0,*68
1513288904.24,29095,5.5,71812.0,-10.49,-27.83,-27.67,0,*61
1513288905.48,29096,5.5,71818.3,-10.51,-27.89,-27.89,0,*61
1513288906.72,29097,5.5,71818.0,-10.51,-27.93,-27.89,0,*6B
1513288907.96,29098,5.5,71820.3,-10.51,-27.77,-27.89,0,*6E
1513288909.18,29099,5.56,71816.8,-10.49,-27.89,-27.89,0,*67
1513288910.4,29100,5.5,71814.3,-10.49,-27.67,-27.67,0,*66
1513288911.61,29101,5.5,71824.5,-10.49,-27.71,-27.71,0,*67
1513288912.85,29102,5.56,71828.0,-10.51,-27.89,-27.93,0,*66
1513288914.09,29103,5.5,71826.5,-10.49,-27.83,-27.89,0,*6F
1513288915.3,29104,5.56,71824.3,-10.49,-27.71,-27.55,0,*64
1513288916.56,29105,5.5,71824.3,-10.49,-27.83,-27.83,0,*63
1513288917.77,29106,5.5,71826.0,-10.49,-27.55,-27.55,0,*60
1513288919.06,29107,5.5,71818.8,-10.51,-27.45,-27.45,0,*68
1513288920.27,29108,5.5,71816.0,-10.49,-27.55,-27.51,0,*6A
1513288921.51,29109,5.56,71812.0,-10.49,-27.35,-27.51,0,*6D
1513288922.78,29110,5.56,71810.8,-10.51,-27.71,-27.61,0,*6F
1513288924.02,29111,5.5,71816.0,-10.49,-27.07,-27.19,0,*69
1513288925.28,29112,5.56,71818.8,-10.49,-27.19,-27.19,0,*65
1513288926.54,29113,5.56,71812.8,-10.49,-27.23,-27.19,0,*6D
1513288927.77,29114,5.5,71812.3,-10.47,-27.51,-27.55,0,*69
1513288929.06,29115,5.5,71802.8,-10.47,-27.23,-27.23,0,*6C
1513288930.33,29116,5.5,71816.5,-10.47,-27.19,-27.19,0,*6F
1513288931.62,29117,5.56,71820.5,-10.47,-27.35,-27.35,0,*6E
1513288932.86,29118,5.5,71820.0,-10.45,-27.29,-27.35,0,*6E
1513288934.15,29119,5.5,71814.0,-10.47,-27.23,-27.35,0,*67
1513288935.43,29120,5.56,71816.0,-10.47,-27.35,-27.23,0,*6D
1513288936.69,29121,5.5,71816.0,-10.47,-27.35,-27.51,0,*69
1513288937.95,29122,5.56,71812.5,-10.49,-27.19,-27.35,0,*68
1513288939.2,29123,5.5,71816.5,-10.45,-27.19,-27.39,0,*69
1513288940.49,29124,5.5,71822.8,-10.47,-27.35,-27.35,0,*6E
1513288941.77,29125,5.5,71818.8,-10.47,-27.19,-27.19,0,*6F
1513288943.05,29126,5.5,71812.0,-10.47,-27.23,-27.23,0,*6C
1513288944.33,29127,5.56,71818.3,-10.47,-27.23,-27.23,0,*6D
1513288945.57,29128,5.56,71814.5,-10.47,-26.87,-27.03,0,*6F
1513288946.83,29129,5.5,71814.3,-10.45,-26.93,-26.97,0,*65
1513288948.1,29130,5.56,71818.3,-10.45,-26.77,-26.93,0,*63
1513288949.39,29131,5.56,71810.5,-10.47,-26.81,-26.97,0,*6D
1513288950.67,29132,5.5,71820.0,-10.45,-26.81,-26.97,0,*6C
1513288951.88,29133,5.5,71800.3,-10.43,-26.61,-26.61,0,*6C
1513288953.16,29134,5.56,71822.5,-10.43,-26.81,-26.93,0,*68
1513288954.43,29135,5.56,71830.8,-10.43,-26.77,-26.97,0,*64
1513288955.7,29136,5.56,71824.8,-10.45,-26.93,-26.97,0,*6B
1513288956.92,29137,5.5,71832.0,-10.43,-26.61,-26.65,0,*6C
1513288958.17,29138,5.5,71822.8,-10.43,-26.33,-26.49,0,*6A
1513288959.41,29139,5.5,71808.0,-10.41,-26.61,-26.61,0,*64
1513288960.66,29140,5.56,71802.3,-10.43,-26.45,-26.33,0,*69
1513288961.94,29141,5.5,71804.0,-10.41,-26.33,-26.45,0,*6A
1513288963.22,29142,5.5,71800.8,-10.41,-26.65,-26.77,0,*6B
1513288964.49,29143,5.56,71810.8,-10.41,-26.65,-26.77,0,*6A
1513288965.74,29144,5.5,71810.3,-10.41,-26.45,-26.61,0,*68
1513288967.02,29145,5.5,71832.8,-10.41,-26.65,-26.81,0,*65
1513288968.31,29146,5.5,71840.3,-10.37,-26.71,-26.77,0,*6B
1513288969.58,29147,5.5,71822.0,-10.37,-25.91,-25.97,0,*6A
1513288970.82,29148,5.5,71766.3,-10.35,-25.65,-25.55,0,*62
1513288972.04,29149,5.5,71764.0,-10.35,-25.19,-25.23,0,*69
1513288973.3,29150,5.5,71770.8,-10.33,-25.09,-25.03,0,*64
1513288974.56,29151,5.5,71794.0,-10.31,-25.03,-25.03,0,*6D
1513288975.77,29152,5.5,71794.5,-10.31,-25.13,-25.19,0,*64
1513288977.06,29153,5.5,71784.3,-10.29,-25.29,-25.29,0,*66
1513288978.3,29154,5.56,71786.8,-10.29,-25.19,-25.19,0,*61
1513288979.57,29155,5.5,71786.0,-10.27,-25.55,-25.75,0,*6C
1513288980.84,29156,5.5,71772.0,-10.25,-25.61,-25.81,0,*61
1513288982.08,29157,5.5,71796.3,-10.25,-26.07,-26.23,0,*68
1513288983.29,29158,5.56,71790.3,-10.23,-25.91,-26.07,0,*6B
1513288984.55,29159,5.5,71798.0,-10.25,-26.23,-26.29,0,*6A
1513288985.81,29160,5.5,71786.0,-10.25,-26.55,-26.61,0,*6D
1513288987.09,29161,5.5,71778.3,-10.25,-26.55,-26.71,0,*6D
1513288988.36,29162,5.5,71786.5,-10.25,-26.29,-26.39,0,*69
1513288989.59,29163,5.5,71798.3,-10.23,-26.03,-26.03,0,*6F
1513288990.83,29164,5.5,71788.3,-10.23,-25.71,-25.87,0,*61
1513288992.05,29165,5.56,71784.3,-10.23,-25.91,-26.03,0,*61
1513288993.29,29166,5.5,71814.8,-10.23,-26.03,-26.17,0,*6F
1513288994.5,29167,5.5,71814.8,-10.23,-26.39,-26.49,0,*6C
1513288995.74,29168,5.5,71786.0,-10.23,-26.39,-26.55,0,*6E
1513288996.95,29169,5.5,71804.0,-10.23,-26.39,-26.49,0,*62
1513288998.19,29170,5.5,71790.0,-10.23,-26.33,-26.39,0,*67
1513288999.43,29171,5.5,71814.8,-10.23,-26.39,-26.55,0,*66
1513289000.67,29172,5.56,71810.5,-10.21,-26.39,-26.49,0,*6A
1513289001.91,29173,5.56,71800.8,-10.23,-26.33,-26.39,0,*64
1513289003.12,29174,5.5,71806.0,-10.23,-26.39,-26.49,0,*6E
1513289004.36,29175,5.5,71810.5,-10.23,-26.39,-26.55,0,*62
1513289005.57,29176,5.5,71788.0,-10.23,-26.49,-26.65,0,*65
1513289006.81,29177,5.5,71804.5,-10.25,-26.45,-26.61,0,*6A
1513289008.06,29178,5.5,71804.8,-10.23,-26.33,-26.39,0,*6F
1513289009.29,29179,5.5,71814.3,-10.23,-26.29,-26.49,0,*62
1513289010.51,29180,5.56,71810.3,-10.23,-26.49,-26.65,0,*6C
1513289011.75,29181,5.5,71804.0,-10.25,-26.45,-26.61,0,*63
1513289012.99,29182,5.56,71818.3,-10.25,-26.45,-26.61,0,*60
1513289014.22,29183,5.5,71812.5,-10.23,-26.55,-26.65,0,*62
1513289015.48,29184,5.5,71820.5,-10.23,-26.55,-26.71,0,*60
1513289016.76,29185,5.5,71820.8,-10.25,-26.55,-26.71,0,*67
1513289018.03,29186,5.5,71804.3,-10.25,-26.39,-26.55,0,*68
1513289019.24,29187,5.5,71802.5,-10.23,-26.39,-26.39,0,*65
1513289020.48,29188,5.5,71812.5,-10.23,-26.39,-26.55,0,*60
1513289021.71,29189,5.5,71816.5,-10.23,-26.55,-26.65,0,*68
1513289022.98,29190,5.56,71816.5,-10.25,-26.39,-26.55,0,*6F
1513289024.21,29191,5.5,71822.3,-10.23,-26.39,-26.55,0,*68
1513289025.42,29192,5.5,71822.8,-10.23,-26.39,-26.65,0,*68
1513289026.71,29193,5.5,71818.8,-10.25,-26.55,-26.71,0,*60
1513289027.99,29194,5.56,71818.8,-10.25,-26.55,-26.71,0,*67
1513289029.26,29195,5.56,71836.5,-10.25,-26.45,-26.77,0,*61
1513289030.5,29196,5.5,71820.5,-10.25,-26.39,-26.61,0,*6E
1513289031.74,29197,5.56,71820.8,-10.25,-26.39,-26.61,0,*6F
1513289033.01,29198,5.5,71814.3,-10.25,-26.13,-26.39,0,*65
1513289034.22,29199,5.5,71820.0,-10.23,-26.23,-26.39,0,*61
1513289035.48,29200,5.56,71830.8,-10.23,-26.33,-26.55,0,*69
1513289036.75,29201,5.56,71834.5,-10.25,-26.45,-26.71,0,*69
1513289038.01,29202,5.5,71836.3,-10.25,-26.39,-26.71,0,*61
1513289039.24,29203,5.5,71824.0,-10.25,-26.23,-26.45,0,*6C
1513289040.51,29204,5.5,71824.5,-10.25,-26.13,-26.39,0,*63
1513289041.8,29205,5.5,71820.3,-10.25,-26.29,-26.55,0,*61
1513289043.09,29206,5.5,71826.5,-10.25,-25.97,-26.29,0,*6F
1513289044.36,29207,5.56,71836.0,-10.25,-26.29,-26.45,0,*62
1513289045.59,29208,5.5,71836.5,-10.25,-26.23,-26.61,0,*61
1513289046.83,29209,5.5,71838.5,-10.27,-26.29,-26.61,0,*68
1513289048.06,29210,5.5,71840.8,-10.27,-26.23,-26.55,0,*6D
1513289049.33,29211,5.5,71844.0,-10.29,-26.29,-26.61,0,*6F
1513289050.54,29212,5.5,71848.8,-10.27,-26.07,-26.39,0,*63
1513289051.79,29213,5.5,71826.3,-10.25,-26.07,-26.39,0,*60
1513289053.0,29214,5.5,71824.8,-10.27,-25.91,-26.07,0,*64
1513289054.29,29215,5.5,71826.8,-10.25,-25.97,-26.29,0,*6D
1513289055.54,29216,5.5,71832.3,-10.27,-25.97,-26.39,0,*6D
1513289056.78,29217,5.5,71840.0,-10.27,-25.91,-26.29,0,*6B
1513289057.99,29218,5.5,71828.3,-10.27,-25.91,-26.23,0,*6E
1513289059.28,29219,5.5,71832.3,-10.29,-25.97,-26.33,0,*66
1513289060.52,29220,5.5,71826.5,-10.25,-25.91,-26.23,0,*67
1513289061.76,29221,5.5,71830.3,-10.25,-26.07,-26.45,0,*6A
1513289063.02,29222,5.56,71844.3,-10.25,-26.07,-26.55,0,*68
1513289064.26,29223,5.56,71840.5,-10.25,-26.07,-26.61,0,*6E
1513289065.48,29224,5.5,71840.3,-10.27,-26.07,-26.39,0,*66
1513289066.77,29225,5.5,71838.0,-10.25,-25.97,-26.29,0,*6E
1513289068.01,29226,5.5,71846.5,-10.25,-26.07,-26.45,0,*6D
1513289069.26,29227,5.5,71842.3,-10.25,-26.07,-26.39,0,*67
1513289070.52,29228,5.56,71838.0,-10.25,-26.07,-26.55,0,*62
1513289071.78,29229,5.5,71824.5,-10.25,-25.91,-26.29,0,*64
1513289073.05,29230,5.56,71828.0,-10.25,-25.91,-26.29,0,*6C
1513289074.34,29231,5.5,71832.5,-10.25,-25.75,-26.29,0,*67
1513289075.55,29232,5.5,71834.8,-10.27,-25.91,-26.45,0,*66
1513289076.78,29233,5.5,71834.0,-10.27,-25.91,-26.55,0,*66
1513289078.02,29234,5.5,71834.0,-10.27,-25.81,-26.39,0,*6A
1513289079.23,29235,5.5,71838.0,-10.27,-25.65,-26.23,0,*6A
1513289080.5,29236,5.5,71836.5,-10.25,-25.75,-26.45,0,*6A
1513289081.73,29237,5.5,71834.5,-10.23,-25.91,-26.55,0,*66
1513289082.97,29238,5.5,71832.5,-10.25,-26.07,-26.61,0,*64
1513289084.26,29239,5.5,71838.0,-10.25,-26.13,-26.71,0,*61
1513289085.49,29240,5.5,71832.3,-10.23,-26.07,-26.71,0,*6C
1513289086.78,29241,5.5,71824.5,-10.25,-26.13,-26.71,0,*6E
1513289088.02,29242,5.5,71818.0,-10.25,-26.07,-26.61,0,*69
1513289089.26,29243,5.5,71810.8,-10.27,-26.07,-26.71,0,*6B
1513289090.53,29244,5.5,71818.3,-10.29,-26.03,-26.77,0,*60
1513289091.77,29245,5.5,71826.0,-10.27,-26.07,-26.77,0,*6B
1513289093.03,29246,5.5,71820.0,-10.27,-26.13,-26.71,0,*6B
1513289094.3,29247,5.5,71830.0,-10.27,-26.13,-26.81,0,*65
1513289095.56,29248,5.5,71822.0,-10.27,-26.13,-26.81,0,*6A
1513289096.8,29249,5.5,71810.8,-10.27,-26.07,-26.77,0,*67
1513289098.07,29250,5.5,71806.3,-10.27,-26.13,-26.81,0,*63
1513289099.33,29251,5.5,71818.0,-10.27,-26.13,-26.81,0,*62
1513289100.57,29252,5.5,71820.8,-10.27,-26.07,-26.81,0,*64
1513289101.83,29253,5.5,71794.5,-10.27,-26.13,-26.81,0,*60
1513289103.1,29254,5.5,71776.0,-10.27,-26.13,-26.81,0,*67
1513289104.37,29255,5.5,71828.5,-10.29,-26.17,-26.87,0,*6A
1513289105.61,29256,5.5,71824.0,-10.27,-26.07,-26.81,0,*60
1513289106.82,29257,5.5,71814.8,-10.27,-25.91,-26.61,0,*63
1513289108.09,29258,5.5,71816.8,-10.27,-25.97,-26.77,0,*6D
1513289109.35,29259,5.5,71810.5,-10.27,-25.97,-26.77,0,*6C
1513289110.61,29260,5.5,71790.8,-10.27,-25.97,-26.71,0,*60
1513289111.87,29261,5.5,71776.8,-10.27,-25.81,-26.71,0,*66
1513289113.14,29262,5.5,71754.5,-10.27,-25.75,-26.71,0,*6E
1513289114.37,29263,5.5,71766.3,-10.27,-25.91,-26.77,0,*63
1513289115.64,29264,5.5,71790.0,-10.27,-25.97,-26.81,0,*6B
1513289116.93,29265,5.5,71776.3,-10.25,-25.97,-26.81,0,*68
1513289118.2,29266,5.5,71782.3,-10.27,-25.97,-26.93,0,*6A
1513289119.46,29267,5.5,71788.5,-10.27,-25.97,-26.93,0,*6B
1513289120.72,29268,5.5,71792.5,-10.27,-25.97,-26.93,0,*64
1513289121.99,29269,5.5,71800.8,-10.27,-25.97,-26.93,0,*65
1513289123.26,29270,5.5,71806.3,-10.27,-25.97,-26.97,0,*69
1513289124.5,29271,5.5,71810.0,-10.29,-26.03,-27.13,0,*65
1513289125.74,29272,5.5,71822.0,-10.27,-26.07,-26.97,0,*61
1513289127.01,29273,5.5,71802.0,-10.27,-25.97,-26.81,0,*6D
1513289128.25,29274,5.5,71808.3,-10.27,-25.91,-26.97,0,*6B
1513289129.51,29275,5.5,71810.0,-10.27,-25.97,-26.97,0,*6C
1513289130.78,29276,5.56,71822.3,-10.29,-26.17,-27.13,0,*67
1513289132.02,29277,5.5,71828.0,-10.27,-26.07,-26.97,0,*64
1513289133.26,29278,5.5,71824.5,-10.27,-25.97,-27.07,0,*69
1513289134.51,29279,5.5,71808.8,-10.27,-25.97,-27.03,0,*6C
1513289135.76,29280,5.5,71816.3,-10.29,-26.03,-27.13,0,*6B
1513289137.0,29281,5.5,71806.3,-10.27,-25.97,-27.07,0,*6F
1513289138.23,29282,5.5,71818.8,-10.27,-25.91,-26.97,0,*62
1513289139.44,29283,5.5,71822.8,-10.27,-25.91,-27.07,0,*6B
1513289140.68,29284,5.5,71834.3,-10.27,-25.97,-27.07,0,*6A
1513289141.92,29285,5.5,71838.3,-10.27,-26.07,-27.39,0,*6C
1513289143.16,29286,5.5,71828.0,-10.27,-25.97,-27.13,0,*6D
1513289144.4,29287,5.5,71822.3,-10.27,-25.65,-26.81,0,*6B
1513289145.64,29288,5.5,71830.3,-10.27,-25.81,-27.07,0,*61
1513289146.85,29289,5.5,71834.3,-10.27,-26.07,-27.13,0,*68
1513289148.09,29290,5.5,71840.8,-10.27,-25.97,-27.13,0,*6A
1513289149.35,29291,5.5,71834.0,-10.27,-25.81,-26.97,0,*61
1513289150.62,29292,5.5,71826.3,-10.27,-25.75,-26.97,0,*69
1513289151.85,29293,5.5,71820.8,-10.27,-25.81,-27.07,0,*6B
1513289153.06,29294,5.5,71840.8,-10.27,-25.91,-27.13,0,*68
1513289154.3,29295,5.5,71840.5,-10.27,-26.07,-27.23,0,*66
1513289155.54,29296,5.5,71840.8,-10.27,-26.03,-27.19,0,*68
1513289156.75,29297,5.5,71840.0,-10.27,-25.65,-27.13,0,*60
1513289157.99,29298,5.5,71824.0,-10.27,-25.75,-27.07,0,*6B
1513289159.2,29299,5.5,71820.8,-10.27,-25.91,-27.13,0,*65
1513289160.41,29300,5.5,71812.5,-10.27,-25.65,-27.07,0,*6A
1513289161.68,29301,5.5,71800.0,-10.27,-25.97,-27.39,0,*6B
1513289162.92,29302,5.5,71800.3,-10.27,-26.07,-27.39,0,*62
1513289164.13,29303,5.5,71814.3,-10.27,-26.23,-27.55,0,*6F
1513289165.39,29304,5.5,71816.5,-10.29,-26.29,-27.77,0,*6C
1513289166.62,29305,5.5,71834.5,-10.25,-26.23,-27.71,0,*6D
1513289167.83,29306,5.5,71832.8,-10.27,-26.23,-27.71,0,*6C
1513289169.09,29307,5.5,71838.3,-10.27,-26.13,-27.61,0,*6F
1513289170.31,29308,5.5,71830.0,-10.27,-26.07,-27.29,0,*69
1513289171.53,29309,5.5,71826.8,-10.27,-25.91,-27.29,0,*64
1513289172.79,29310,5.5,71796.0,-10.25,-25.81,-27.13,0,*66
1513289174.06,29311,5.5,71792.0,-10.25,-25.81,-27.29,0,*6E
1513289175.35,29312,5.5,71742.3,-10.25,-25.81,-27.39,0,*6C
1513289176.59,29313,5.5,71760.8,-10.25,-25.91,-27.29,0,*6D
1513289177.82,29314,5.5,71750.3,-10.27,-26.13,-27.55,0,*6A
1513289179.11,29315,5.5,71770.5,-10.25,-26.13,-27.61,0,*6E
1513289180.35,29316,5.5,71786.5,-10.25,-26.23,-27.71,0,*6F
1513289181.58,29317,5.5,71786.3,-10.25,-26.23,-27.77,0,*68
1513289182.84,29318,5.5,71798.3,-10.25,-26.23,-27.61,0,*60
1513289184.05,29319,5.5,71822.0,-10.23,-26.07,-27.71,0,*60
1513289185.31,29320,5.5,71840.8,-10.25,-26.23,-27.61,0,*6B
1513289186.58,29321,5.5,71830.0,-10.27,-26.13,-27.61,0,*6B
1513289187.78,29322,5.5,71838.0,-10.27,-26.23,-27.71,0,*6A
1513289189.02,29323,5.5,71844.0,-10.27,-26.39,-27.83,0,*6D
1513289190.26,29324,5.5,71840.5,-10.27,-26.29,-27.77,0,*60
1513289191.52,29325,5.5,71850.8,-10.25,-26.07,-27.61,0,*68
1513289192.79,29326,5.5,71844.0,-10.25,-26.07,-27.61,0,*6B
1513289194.06,29327,5.5,71818.0,-10.25,-26.07,-27.39,0,*67
1513289195.3,29328,5.5,71848.0,-10.25,-26.07,-27.71,0,*64
1513289196.51,29329,5.5,71846.8,-10.23,-26.07,-27.55,0,*65
1513289197.77,29330,5.5,71840.5,-10.25,-26.29,-27.77,0,*67
1513289199.06,29331,5.5,71826.3,-10.25,-26.13,-27.61,0,*68
1513289200.33,29332,5.5,71826.0,-10.25,-26.13,-27.71,0,*6A
1513289201.59,29333,5.5,71820.3,-10.25,-26.13,-27.77,0,*6D
1513289202.83,29334,5.5,71834.0,-10.23,-26.17,-27.77,0,*68
1513289204.09,29335,5.5,71838.3,-10.25,-26.23,-27.83,0,*63
1513289205.35,29336,5.5,71826.0,-10.25,-26.39,-27.83,0,*6B
1513289206.61,29337,5.5,71820.0,-10.25,-26.29,-27.77,0,*60
1513289207.88,29338,5.5,71810.3,-10.25,-26.13,-27.71,0,*60
1513289209.12,29339,5.5,71838.8,-10.25,-26.07,-27.55,0,*62
1513289210.41,29340,5.5,71836.0,-10.25,-26.29,-27.83,0,*6B
1513289211.64,29341,5.5,71822.0,-10.25,-25.91,-27.55,0,*61
1513289212.92,29342,5.5,71830.0,-10.25,-25.81,-27.45,0,*62
1513289214.21,29343,5.5,71822.5,-10.25,-25.81,-27.39,0,*68
1513289215.45,29344,5.5,71828.5,-10.25,-26.07,-27.71,0,*6E
1513289216.72,29345,5.5,71838.3,-10.25,-25.97,-27.55,0,*63
1513289217.98,29346,5.5,71814.5,-10.25,-26.13,-27.55,0,*6F
1513289219.25,29347,5.5,71828.8,-10.25,-26.13,-27.71,0,*68
1513289220.46,29348,5.5,71808.5,-10.23,-26.03,-27.55,0,*66
1513289221.71,29349,5.5,71810.0,-10.23,-26.17,-27.67,0,*63
1513289222.94,29350,5.5,71812.8,-10.25,-26.23,-27.71,0,*6D
1513289224.18,29351,5.5,71816.3,-10.23,-26.17,-27.55,0,*6B
1513289225.4,29352,5.5,71830.3,-10.23,-26.03,-27.51,0,*69
1513289226.64,29353,5.5,71812.5,-10.23,-25.87,-27.19,0,*6B
1513289227.88,29354,5.5,71812.5,-10.23,-26.07,-27.39,0,*65
1513289229.12,29355,5.5,71816.0,-10.23,-26.03,-27.39,0,*60
1513289230.36,29356,5.5,71794.8,-10.23,-25.87,-27.35,0,*60
1513289231.6,29357,5.5,71788.5,-10.23,-25.87,-27.19,0,*6F
1513289232.84,29358,5.5,71806.5,-10.23,-26.07,-27.39,0,*69
1513289234.08,29359,5.5,71802.3,-10.23,-26.07,-27.39,0,*68
1513289235.34,29360,5.5,71820.5,-10.21,-26.07,-27.39,0,*60
1513289236.61,29361,5.5,71784.0,-10.21,-26.17,-27.51,0,*6E
1513289237.84,29362,5.5,71774.3,-10.21,-26.23,-27.51,0,*6A
1513289239.09,29363,5.5,71770.5,-10.19,-25.97,-27.29,0,*63
1513289240.33,29364,5.5,71784.5,-10.19,-26.17,-27.51,0,*60
1513289241.57,29365,5.5,71798.8,-10.21,-26.39,-27.67,0,*63
1513289242.84,29366,5.5,71808.8,-10.21,-26.33,-27.51,0,*6F
1513289244.09,29367,5.5,71804.3,-10.21,-26.39,-27.67,0,*61
1513289245.33,29368,5.5,71804.3,-10.21,-26.39,-27.67,0,*6E
1513289246.57,29369,5.5,71808.8,-10.21,-26.49,-27.71,0,*6F
1513289247.83,29370,5.5,71808.5,-10.21,-26.55,-27.71,0,*6A
1513289249.05,29371,5.5,71810.3,-10.19,-26.61,-27.67,0,*60
1513289250.31,29372,5.5,71802.0,-10.21,-26.55,-27.55,0,*6E
1513289251.55,29373,5.5,71810.3,-10.21,-26.49,-27.67,0,*63
1513289252.79,29374,5.5,71804.8,-10.21,-26.49,-27.51,0,*61
1513289254.06,29375,5.5,71812.8,-10.21,-26.55,-27.55,0,*69
1513289255.32,29376,5.5,71804.5,-10.25,-26.71,-27.71,0,*6E
1513289256.61,29377,5.5,71818.0,-10.25,-26.71,-27.61,0,*6E
1513289257.82,29378,5.5,71810.5,-10.23,-26.65,-27.55,0,*65
1513289259.04,29379,5.5,71812.8,-10.23,-26.65,-27.51,0,*60
1513289260.26,29380,5.5,71820.5,-10.23,-26.65,-27.55,0,*62
1513289261.49,29381,5.5,71816.8,-10.23,-26.55,-27.51,0,*64
1513289262.78,29382,5.5,71826.5,-10.25,-26.55,-27.39,0,*6F
1513289264.04,29383,5.5,71820.8,-10.23,-26.55,-27.39,0,*68
1513289265.28,29384,5.5,71826.3,-10.23,-26.49,-27.23,0,*69
1513289266.52,29385,5.5,71828.3,-10.23,-26.49,-27.35,0,*6F
1513289267.78,29386,5.5,71822.8,-10.23,-26.55,-27.39,0,*6D
1513289269.04,29387,5.5,71818.3,-10.23,-26.55,-27.39,0,*6C
1513289270.33,29388,5.5,71814.0,-10.25,-26.71,-27.39,0,*63
1513289271.59,29389,5.5,71816.8,-10.25,-26.61,-27.35,0,*6F
1513289272.83,29390,5.5,71812.3,-10.23,-26.49,-27.23,0,*6C
1513289274.08,29391,5.5,71816.8,-10.23,-26.03,-26.71,0,*65
1513289275.34,29392,5.5,71806.5,-10.23,-26.17,-26.77,0,*65
1513289276.61,29393,5.5,71810.3,-10.23,-26.17,-26.77,0,*64
1513289277.86,29394,5.5,71816.5,-10.23,-26.33,-27.03,0,*67
1513289279.09,29395,5.5,71816.3,-10.23,-26.39,-26.93,0,*64
1513289280.3,29396,5.5,71820.8,-10.23,-26.23,-26.87,0,*69
1513289281.57,29397,5.5,71820.5,-10.23,-26.33,-26.93,0,*6C
1513289282.8,29398,5.5,71808.5,-10.23,-26.55,-27.03,0,*6B
1513289284.02,29399,5.5,71816.3,-10.23,-26.49,-27.03,0,*67
1513289285.26,29400,5.5,71818.8,-10.23,-26.49,-26.93,0,*68
1513289286.53,29401,5.5,71820.0,-10.23,-26.33,-26.77,0,*6E
1513289287.8,29402,5.5,71820.8,-10.23,-26.33,-26.77,0,*6D
1513289289.04,29403,5.5,71820.0,-10.23,-26.17,-26.87,0,*65
1513289290.28,29404,5.5,71824.3,-10.23,-26.33,-26.87,0,*64
1513289291.55,29405,5.5,71818.8,-10.23,-26.33,-26.77,0,*6A
1513289292.79,29406,5.5,71820.0,-10.23,-26.17,-26.65,0,*6C
1513289294.03,29407,5.5,71780.5,-10.23,-26.17,-26.65,0,*6D
1513289295.25,29408,5.5,71774.0,-10.23,-26.03,-26.49,0,*69
1513289296.48,29409,5.5,71784.5,-10.23,-26.23,-26.71,0,*61
1513289297.72,29410,5.5,71804.5,-10.23,-26.33,-26.65,0,*6D
1513289298.93,29411,5.5,71810.8,-10.19,-26.23,-26.65,0,*64
1513289300.17,29412,5.5,71824.8,-10.21,-26.23,-26.65,0,*6C
1513289301.45,29413,5.5,71814.3,-10.21,-26.17,-26.55,0,*69
1513289302.71,29414,5.5,71810.8,-10.21,-26.23,-26.55,0,*69
1513289303.94,29415,5.5,71810.0,-10.21,-26.23,-26.65,0,*6B
1513289305.18,29416,5.5,71812.5,-10.21,-26.23,-26.65,0,*68
1513289306.41,29417,5.5,71838.0,-10.21,-26.23,-26.65,0,*69
1513289307.67,29418,5.5,71796.8,-10.21,-25.91,-26.17,0,*69